Location: Doschendorf
(50.0069°N, 11.0602°E)
Time: 06:10:07
(UTC+00:00)

SeaSat 1 - Pass Details

Date: 17 November 2019
Orbit: 745 x 747 km, 108.0° (Epoch: 06 December)

Event Time Altitude Azimuth Distance (km) Brightness Sun altitude
Rises 16:48:08 0° 144° (SE) 3,178 5.5 -12.5°
Reaches altitude 10° 16:50:23 10° 143° (SE) 2,258 4.7 -12.9°
Maximum altitude 16:55:18 78° 57° (ENE) 769 2.4 -13.6°
Drops below altitude 10° 17:00:15 10° 332° (NNW) 2,274 5.1 -14.4°
Sets 17:02:31 0° 332° (NNW) 3,203 5.9 -14.7°
